Wind_Speed
17 19 19 19 18 17 15 15 17 19 21 23 25 25 23 26 28 23 22 23 21 24 26 25 29 32 30 26 24 25 25 25 23 20 21 22 21 20 20 20 19 20 19 17 16 15 16 17 17 17 17 17 17 19 21 23 26 29 31 34 36 38 40 42 44 46 47 49 50 50 51 52 53 53 54 53 53 52 51 50 50 49 48 47 47 46
19 21 19 18 17 15 15 15 17 21 23 25 25 24 24 26 27 25 22 21 19 23 26 27 32 32 29 28 25 23 24 23 20 16 17 21 22 21 21 20 20 20 18 15 15 16 16 18 18 19 20 20 21 23 25 27 30 33 35 37 38 40 42 44 46 48 50 51 53 54 55 55 56 56 56 55 54 54 53 52 50 50 49 48 47 46
21 21 18 17 18 17 17 18 20 23 25 24 22 23 26 25 25 24 19 19 19 23 28 30 33 33 29 26 19 15 16 16 13 12 15 20 22 22 20 20 20 19 16 16 16 16 17 19 19 21 22 24 25 27 29 31 34 36 37 38 39 41 43 46 48 51 53 55 56 57 57 58 58 57 56 55 54 53 53 51 50 49 48 47 47 46
22 21 19 20 21 20 21 22 23 24 23 22 22 25 27 23 21 21 20 21 21 25 30 29 33 33 24 15 10 9 13 14 12 12 16 19 19 20 19 18 18 17 16 17 17 18 19 20 21 23 25 27 29 31 34 35 37 38 39 41 43 45 47 50 52 55 57 58 59 59 58 57 56 55 53 52 50 49 49 48 47 46 45 45 45 45
23 23 22 22 21 21 22 21 21 22 24 24 24 25 24 20 18 20 22 23 24 26 25 26 32 23 8 8 12 13 15 15 13 14 16 18 18 17 17 17 17 17 18 18 19 20 21 21 23 25 27 29 31 33 35 37 39 41 43 45 47 49 51 54 57 59 61 61 60 58 56 54 52 50 47 46 45 43 43 43 43 44 44 44 44 44
23 21 21 20 19 19 21 21 21 23 26 26 23 21 20 18 18 19 21 24 25 22 18 22 21 7 4 14 18 16 14 12 12 15 17 18 17 16 16 17 18 19 20 20 21 21 22 23 24 26 29 30 32 34 37 40 42 45 48 50 52 54 55 57 60 62 62 61 58 55 52 49 47 45 43 42 42 41 41 41 42 42 43 43 43 43
20 19 19 20 20 20 22 22 22 22 23 24 21 18 17 18 18 19 20 22 21 18 20 22 12 10 19 20 11 11 13 12 14 15 17 17 17 17 17 18 19 20 21 21 21 21 22 23 25 27 29 32 35 38 41 44 47 49 52 54 56 57 59 61 64 64 61 57 52 49 47 45 43 42 41 40 40 40 40 40 40 40 41 42 43 42
20 20 20 21 21 21 21 21 19 19 21 21 19 17 18 18 18 18 20 21 21 22 23 19 10 13 19 15 10 11 10 15 17 17 17 18 18 19 19 20 20 21 21 21 21 21 22 23 25 28 32 36 40 43 46 48 50 53 54 55 57 60 63 65 65 63 59 52 47 43 41 40 40 40 40 39 38 37 38 40 40 40 41 41 42 42
21 21 19 19 19 19 19 19 19 19 19 19 19 18 17 17 17 19 21 21 19 17 17 14 7 8 10 11 13 11 7 15 17 17 18 18 18 19 20 20 20 21 21 21 21 22 23 25 28 32 37 41 44 46 48 50 52 53 54 56 60 63 66 66 62 58 55 50 46 42 39 39 38 38 39 39 38 37 38 40 40 40 40 41 41 42
18 18 17 17 18 19 19 19 20 20 18 18 18 16 15 17 20 20 19 17 11 7 11 12 5 5 5 7 5 2 6 14 18 18 18 18 18 18 19 19 20 20 20 20 21 23 25 28 32 36 41 45 47 49 50 51 51 53 56 60 64 66 66 62 57 54 52 49 47 45 42 40 38 37 37 37 37 37 38 40 40 40 40 40 40 41
15 17 17 18 19 18 18 18 18 17 16 15 14 14 17 19 19 16 13 10 5 3 7 7 2 5 3 3 3 5 8 14 19 21 21 20 18 17 17 18 19 19 19 20 22 25 28 32 37 42 45 48 50 51 52 52 53 56 60 64 66 65 61 57 54 51 50 48 47 45 44 42 40 39 39 38 38 37 38 39 40 39 39 38 38 39
17 16 16 16 14 14 15 15 14 14 13 11 12 16 18 16 11 8 6 3 1 3 4 0 4 4 3 2 3 5 7 13 19 21 21 19 16 14 15 16 16 17 19 21 25 29 34 38 43 46 49 51 52 53 52 53 56 59 62 64 62 59 55 53 51 49 47 46 45 44 43 43 42 42 42 42 41 40 40 40 40 39 39 38 38 38
17 14 12 10 11 12 13 13 14 13 11 12 15 18 14 8 5 3 2 1 3 3 1 2 3 5 7 6 4 4 8 14 16 16 16 14 12 12 13 14 16 19 23 27 31 35 40 43 46 49 52 54 53 53 53 55 59 61 61 58 55 54 52 51 49 47 45 43 42 43 43 43 43 42 43 43 43 42 42 42 42 41 41 40 39 39
15 12 8 8 10 11 12 16 17 14 15 17 18 15 7 2 3 3 3 3 3 2 1 7 11 8 5 5 5 6 9 11 11 11 10 10 10 11 13 17 20 24 29 33 37 41 44 46 50 53 54 54 53 54 57 60 61 58 54 51 51 52 51 50 49 47 45 43 42 41 42 42 42 42 42 43 43 43 43 44 44 44 44 43 43 42
12 9 7 8 11 13 16 20 18 17 18 16 13 10 6 4 2 3 3 2 4 6 9 12 9 5 1 6 7 5 5 6 7 8 8 10 11 14 17 20 25 30 35 39 42 44 46 49 54 55 54 53 55 59 61 60 56 51 49 50 52 52 52 50 49 47 45 43 42 41 41 41 41 42 42 43 43 44 44 45 46 46 46 46 46 46
10 8 10 12 15 18 19 16 15 16 14 9 9 9 9 9 7 8 8 9 9 8 7 7 5 3 1 8 8 2 2 4 6 8 10 12 14 17 21 26 31 36 40 43 45 46 49 55 57 56 55 57 60 62 60 56 50 47 49 52 52 52 52 50 48 47 45 44 42 41 41 42 42 42 43 43 44 44 44 45 46 47 47 47 47 47
9 11 16 19 19 17 14 12 14 16 13 11 13 12 10 10 10 11 11 10 8 4 3 4 3 4 6 9 7 3 5 5 6 9 12 15 19 23 28 32 36 40 44 46 46 49 54 57 57 57 59 61 62 60 57 51 46 47 51 54 54 54 52 49 47 45 44 43 43 42 42 42 42 42 42 43 43 44 45 45 46 47 47 48 48 49
14 20 22 20 15 12 12 16 18 18 16 14 14 12 10 9 8 8 6 4 3 1 4 5 4 6 6 8 8 4 5 5 7 12 16 20 24 28 32 35 39 43 46 48 50 54 57 57 58 60 61 60 59 56 53 48 46 49 53 56 58 58 55 51 47 45 44 43 43 42 41 41 41 41 42 42 43 44 45 46 47 48 49 49 50 51
18 21 20 16 11 13 18 21 20 17 14 13 13 11 9 7 6 5 3 2 2 1 3 4 4 3 1 6 7 2 5 7 12 16 20 24 28 31 35 39 42 46 48 52 55 57 58 59 61 60 59 57 55 53 51 49 49 53 56 59 61 61 56 51 47 45 44 43 43 42 41 40 41 41 42 43 44 45 46 47 48 49 50 50 51 52
17 13 14 16 16 20 22 19 18 17 15 13 11 10 8 8 8 6 5 3 2 2 3 3 2 3 6 3 2 6 10 13 19 22 25 30 33 36 40 43 45 49 52 55 56 58 60 60 59 56 55 54 53 52 51 52 54 56 59 62 64 63 57 50 46 45 44 43 42 42 41 41 42 42 43 44 46 47 47 48 49 50 51 52 52 53
16 10 14 21 23 23 21 17 18 19 16 12 10 10 9 8 7 7 9 9 7 3 2 1 2 3 4 3 6 10 17 21 24 28 31 35 38 41 44 45 48 52 54 55 56 58 59 56 54 53 52 51 51 51 52 54 56 59 62 66 67 63 56 50 46 45 45 44 43 42 42 42 43 44 45 46 47 48 49 49 51 51 52 52 52 53
15 12 19 27 27 23 21 19 20 20 16 13 11 9 8 8 9 8 7 8 8 6 3 2 1 5 4 5 10 14 20 24 27 31 35 39 42 44 45 47 50 52 53 55 56 55 53 51 51 50 50 50 51 52 54 56 59 63 66 67 64 58 53 50 48 46 46 44 44 44 43 44 45 46 47 48 48 48 49 50 51 52 52 52 52 53
18 17 21 25 24 23 22 19 16 13 10 8 7 8 10 13 12 9 7 6 6 7 9 6 2 7 9 9 15 19 23 27 31 35 39 42 43 45 47 49 50 52 54 54 53 50 49 49 49 49 50 51 52 54 58 61 65 67 67 64 58 53 50 49 48 47 46 45 44 44 45 45 46 47 47 48 48 48 49 50 51 51 52 52 52 52
18 15 18 22 24 23 20 13 6 2 3 5 9 14 17 15 13 12 13 12 10 9 10 7 2 8 12 11 18 22 27 31 35 39 41 43 44 46 48 49 51 54 53 51 50 49 48 48 49 49 51 53 56 60 64 66 67 65 62 58 54 51 49 48 47 46 46 45 45 45 46 47 47 47 48 48 48 48 49 49 50 51 51 51 52 53
16 12 15 18 17 15 12 6 2 5 11 16 19 20 18 15 15 15 14 13 9 5 5 4 3 8 10 13 21 25 29 34 37 40 41 43 46 48 49 51 53 53 52 51 51 50 50 50 50 51 54 58 62 65 65 64 61 58 55 53 51 49 48 48 47 47 47 46 47 47 48 48 48 48 48 48 49 49 49 49 49 50 50 51 53 53
15 15 16 13 7 7 8 7 11 17 22 23 22 20 19 17 15 13 11 9 5 5 7 8 11 15 17 21 26 29 33 36 38 40 41 44 46 48 51 54 54 53 53 52 52 51 51 51 52 55 59 62 62 61 59 56 55 54 52 51 51 50 49 49 48 48 49 48 49 49 49 50 50 50 50 50 50 50 50 50 50 50 50 52 53 55
17 19 18 16 14 15 17 17 19 22 25 23 18 16 17 15 14 13 12 8 7 10 13 13 14 21 25 26 31 34 35 36 38 41 44 46 47 50 54 55 54 53 52 52 52 52 53 54 57 60 60 58 57 55 55 54 54 54 53 52 52 52 51 50 50 50 50 50 51 51 51 52 52 52 52 52 52 52 52 51 51 51 51 52 54 55
20 22 20 17 17 19 20 20 18 17 19 18 14 13 15 15 15 15 11 8 8 10 12 11 12 20 27 30 33 34 35 36 40 43 45 46 49 53 55 54 53 52 51 51 52 53 55 59 60 59 57 55 55 55 55 55 54 54 54 53 53 52 52 52 51 52 52 52 52 52 53 53 53 53 53 53 53 54 53 53 52 52 52 52 53 55
21 21 18 15 16 18 17 16 13 11 12 13 13 14 14 14 14 12 8 8 9 10 12 16 18 22 27 29 31 32 35 39 42 43 43 46 51 54 54 53 53 52 51 52 53 55 58 58 57 55 55 55 56 56 55 55 54 54 54 53 53 52 52 52 52 52 53 53 53 53 54 54 54 54 54 54 54 55 55 55 54 53 53 52 53 53
17 16 15 16 18 18 15 12 11 11 12 12 13 12 11 12 13 10 7 8 11 13 16 20 23 25 26 29 32 34 37 39 40 41 44 49 52 53 53 52 51 51 52 53 54 55 55 54 53 54 54 54 55 55 55 55 55 54 54 53 53 53 53 53 53 53 54 54 54 54 54 54 55 55 55 55 55 55 55 55 54 54 53 53 53 52
14 15 15 15 18 19 14 11 12 13 13 12 12 10 9 10 10 9 9 11 14 17 19 23 27 29 31 34 36 37 38 38 39 43 48 51 51 52 52 51 50 51 52 52 52 52 51 51 52 52 53 54 54 55 55 55 55 54 54 54 54 54 54 54 54 54 54 54 54 54 54 54 54 55 55 55 55 55 55 54 54 53 52 52 51 51
14 15 15 15 18 19 16 12 12 13 15 12 9 9 9 9 10 11 12 14 18 21 23 27 31 35 37 39 38 36 36 38 43 48 51 51 51 51 51 50 50 50 50 49 49 50 50 51 52 52 53 54 54 55 55 55 54 54 54 55 55 55 55 55 55 55 54 54 54 54 54 54 54 54 54 54 55 55 54 54 54 53 52 51 51 50
13 14 17 15 15 17 16 13 12 13 11 7 6 7 9 11 13 13 13 16 20 22 27 32 35 36 37 38 37 35 38 43 48 50 50 50 50 49 48 49 48 47 47 48 49 50 50 51 52 53 53 54 54 55 55 55 55 54 54 55 55 55 54 54 54 54 54 54 54 54 54 54 54 54 54 54 54 54 54 54 54 54 53 52 51 50
13 16 19 15 13 15 16 15 14 8 3 4 5 8 11 14 15 15 15 18 22 26 31 34 34 33 34 34 34 37 42 48 50 49 48 48 48 48 48 47 46 46 47 48 49 49 50 51 51 52 53 54 54 54 54 55 55 55 55 55 55 55 55 54 54 54 54 54 54 54 54 54 54 54 54 54 54 54 54 54 54 54 53 52 51 49
15 17 17 14 13 14 16 16 10 2 2 7 10 11 13 16 16 16 18 22 27 33 37 35 32 32 32 31 34 40 45 48 48 47 45 45 46 47 47 46 46 47 48 48 49 50 51 51 52 52 53 54 54 54 55 55 55 55 56 56 56 56 55 55 55 55 55 54 54 54 54 54 54 54 54 54 54 54 54 53 53 53 53 52 50 48
17 17 15 15 11 10 12 12 6 5 10 13 13 13 14 16 17 19 25 29 33 35 36 34 31 30 31 34 39 43 46 47 46 44 43 44 45 45 44 44 45 46 48 49 50 51 51 52 53 53 54 55 55 56 56 56 56 56 56 56 56 56 56 56 56 55 55 55 55 55 55 55 54 54 54 54 54 54 54 54 53 53 52 51 49 46
18 16 14 12 8 7 11 12 9 8 10 11 12 13 14 16 18 21 27 35 37 34 30 29 29 31 35 40 44 44 44 46 46 44 43 44 44 42 42 42 43 45 47 48 49 50 51 52 53 54 55 56 56 57 57 57 57 57 57 57 57 57 57 56 56 56 56 56 55 55 55 55 55 55 54 54 54 54 53 54 53 53 52 50 47 44
18 14 11 8 6 8 11 11 7 4 5 8 10 12 15 18 19 23 32 38 36 29 26 28 32 38 41 43 45 45 46 47 46 45 45 45 43 42 42 42 43 45 46 47 49 51 51 52 53 54 55 56 56 57 57 58 58 57 57 57 57 57 57 57 56 56 56 56 56 55 55 55 55 55 55 54 54 53 53 53 53 52 50 49 46 43
15 11 8 6 6 10 12 9 4 3 6 11 15 17 19 21 25 31 33 29 25 25 30 35 38 42 44 45 47 47 46 48 48 46 45 45 44 43 43 43 44 45 46 48 50 51 52 52 52 53 54 55 56 56 57 57 57 57 58 58 58 58 57 57 56 56 56 55 55 55 55 55 55 55 55 54 53 53 52 52 52 51 49 47 45 41
13 9 7 5 7 12 13 9 7 8 12 16 20 23 25 28 33 30 19 18 27 34 38 40 42 44 46 47 46 44 43 45 47 46 44 44 43 43 43 44 45 46 47 48 49 50 51 52 52 52 53 54 55 56 57 57 57 57 57 58 58 57 57 56 55 55 55 54 54 54 54 54 54 54 53 53 52 52 52 52 51 50 48 45 42 39
11 8 4 5 10 14 13 12 12 13 15 19 23 28 32 34 31 20 15 26 39 41 39 41 43 45 45 43 43 42 41 41 42 42 42 42 42 42 42 44 45 45 47 48 48 50 50 51 52 53 53 54 55 55 56 57 57 57 57 57 57 57 56 55 54 54 53 53 53 53 53 53 53 52 52 52 51 51 51 51 50 48 46 43 40 37
10 8 4 7 14 15 14 15 15 12 15 24 29 33 36 34 27 24 28 36 39 39 40 42 42 42 41 40 40 40 39 38 38 39 39 41 41 42 43 44 44 45 46 47 48 49 50 51 52 53 53 54 55 55 56 57 56 56 56 56 56 56 55 54 53 52 52 52 52 52 52 51 51 50 50 50 50 51 50 49 48 46 44 41 38 34
10 7 5 10 16 16 14 13 10 10 21 32 35 35 36 34 32 35 38 38 37 39 40 40 39 39 39 39 40 39 37 37 37 38 39 40 41 42 43 44 45 46 47 48 49 50 51 52 52 53 53 54 55 56 56 56 56 56 56 56 56 55 55 54 52 52 51 51 51 51 50 50 49 49 49 49 49 50 49 48 47 45 42 39 36 31
9 6 5 11 15 15 14 12 12 18 29 34 34 34 36 36 37 38 38 37 38 39 38 38 39 38 38 39 39 38 37 37 38 38 39 40 41 42 43 44 46 47 48 49 50 51 52 52 53 53 53 54 55 55 56 56 56 56 55 55 56 55 54 53 52 51 51 50 50 49 48 48 47 47 47 48 48 48 48 47 46 44 40 36 32 28
8 6 8 13 17 18 19 19 22 26 29 29 30 33 35 36 36 36 36 37 37 37 36 37 38 37 38 39 39 38 37 37 38 38 39 40 42 43 44 46 47 48 49 49 50 51 51 52 53 53 53 53 54 54 55 55 55 55 55 55 55 54 54 53 52 51 51 50 49 48 47 47 46 45 45 45 46 46 46 46 45 42 38 33 28 24
8 8 11 17 23 24 23 23 27 30 28 28 30 32 34 35 36 35 35 36 36 36 36 36 36 37 38 38 38 38 37 38 38 38 39 41 43 44 46 47 47 48 49 49 50 51 52 52 53 53 53 54 54 54 54 54 54 55 54 53 53 53 53 52 52 51 50 50 48 47 47 46 45 44 43 42 42 43 44 44 43 40 35 29 24 21
10 10 14 21 27 29 27 29 33 35 33 32 33 34 36 37 37 37 36 36 37 38 38 37 36 37 37 37 38 38 38 38 39 39 40 42 44 45 47 47 48 49 49 50 50 51 52 53 54 54 54 55 54 54 54 54 53 53 53 53 52 52 52 52 52 51 50 49 48 47 47 46 45 44 42 41 40 40 40 40 39 36 31 25 20 17
12 13 18 25 30 32 33 36 38 38 36 34 35 36 38 38 38 38 38 37 37 38 38 38 37 37 37 38 38 38 38 38 39 40 41 43 45 46 47 48 49 49 49 50 51 52 53 54 54 55 55 55 55 54 53 53 53 52 52 52 52 52 52 51 51 50 49 48 47 47 46 46 45 43 42 40 38 38 38 38 37 32 26 22 18 16
15 16 22 29 33 35 37 40 42 42 40 38 37 38 39 39 39 39 38 38 37 37 37 37 37 37 38 38 38 39 38 38 39 40 42 43 45 46 47 48 49 50 50 50 51 52 53 54 55 55 55 54 54 53 53 53 52 51 51 51 51 51 52 51 50 49 48 46 46 46 45 45 43 42 41 40 37 34 32 33 35 32 24 18 16 16
17 19 25 32 36 38 40 41 42 42 41 40 39 39 41 41 41 40 39 38 38 38 37 37 37 37 37 37 37 38 38 38 40 41 42 43 45 46 47 48 49 50 50 51 51 52 53 54 54 54 54 53 53 52 52 52 51 50 49 50 50 50 50 50 49 48 47 46 46 45 45 44 42 41 40 39 37 34 28 24 27 28 23 17 15 13
18 22 29 34 37 39 40 41 40 39 39 40 40 40 42 42 41 40 39 38 38 38 37 37 37 37 37 37 37 38 39 39 40 41 42 43 44 45 47 48 49 50 51 51 52 53 52 53 53 53 53 52 52 51 51 50 50 49 49 49 49 48 48 49 48 48 47 46 45 45 44 43 42 40 39 37 36 35 30 23 20 21 21 18 14 11
Wind_Direction
300 300 303 305 304 302 298 292 290 291 295 299 302 299 296 296 300 307 304 300 302 297 298 307 306 307 312 316 316 305 293 285 281 275 271 274 276 267 253 253 259 258 257 257 259 261 262 264 264 265 265 268 274 281 286 292 298 303 306 307 309 310 311 312 312 312 312 312 312 312 312 312 311 311 309 308 306 304 303 302 301 299 298 296 295 294
299 299 304 305 302 299 294 288 285 287 292 296 298 296 294 296 301 306 304 301 303 295 298 308 305 306 313 316 312 298 287 284 278 270 268 268 265 257 249 252 258 258 259 260 260 261 262 264 265 268 271 275 281 288 293 298 303 308 311 313 313 313 314 314 314 314 314 314 313 313 312 312 310 309 307 306 304 302 301 300 299 297 296 295 293 292
299 300 305 304 302 299 293 289 288 289 292 294 296 295 295 300 304 305 304 303 301 296 303 311 307 308 318 318 311 297 292 294 284 264 259 262 257 249 247 254 257 259 261 259 259 261 263 267 270 275 280 285 291 295 298 301 307 311 314 315 314 314 315 316 316 316 316 315 314 314 312 311 309 307 306 304 303 302 301 300 298 297 296 295 294 293
297 301 304 303 302 298 292 290 291 292 293 295 297 296 297 305 305 302 303 301 301 302 307 311 308 312 324 321 303 301 306 304 287 260 249 248 246 243 246 252 256 258 258 256 258 261 265 270 276 282 288 293 298 301 303 306 311 314 315 314 314 316 318 318 318 318 317 316 314 313 311 309 307 306 305 303 302 302 301 301 300 299 297 295 294 293
297 302 303 302 301 296 293 293 294 294 295 296 298 298 300 306 304 300 301 301 303 305 307 311 312 316 340 320 306 311 310 299 278 255 238 230 230 235 242 248 252 254 254 256 260 263 267 274 282 290 295 300 305 307 309 312 314 315 315 314 316 317 318 318 318 317 316 314 313 311 309 307 306 305 304 303 302 301 301 300 299 298 297 296 296 295
300 302 302 302 299 296 294 296 298 298 297 298 300 302 304 307 307 303 300 301 304 305 308 317 320 313 301 314 315 310 299 280 257 240 225 219 224 234 242 247 249 251 254 258 262 267 273 281 291 298 303 307 309 311 312 314 315 315 316 317 317 317 317 318 317 316 315 314 312 310 308 307 305 304 304 303 302 302 301 300 300 299 299 299 299 299
304 305 305 303 300 298 297 300 303 301 299 299 302 308 309 309 309 303 300 300 300 300 305 310 299 270 300 318 327 305 280 245 225 216 212 215 224 235 242 246 249 251 256 260 265 271 279 289 298 303 308 311 313 314 315 315 316 317 317 318 317 317 318 317 316 315 314 313 311 309 307 306 305 304 304 304 304 304 304 303 302 302 301 301 302 302
307 307 307 305 302 302 303 305 306 303 300 299 305 311 309 308 307 303 301 297 295 299 304 304 273 264 295 315 329 314 267 224 207 198 207 219 228 239 244 246 248 252 258 262 269 278 287 296 303 309 313 315 316 317 317 317 317 318 318 318 318 318 318 317 316 314 313 312 310 307 306 305 305 305 305 305 304 304 304 303 303 303 303 304 304 305
309 308 308 306 305 306 308 310 308 306 303 300 305 309 308 309 308 306 300 295 299 303 306 310 279 248 282 304 317 318 245 209 199 199 213 222 232 241 243 245 248 254 259 264 273 283 292 300 307 313 315 316 318 318 318 319 318 318 319 319 319 319 319 317 316 314 313 312 310 308 307 307 307 306 305 304 303 303 303 302 303 304 305 306 306 307
311 310 311 308 307 309 309 309 309 308 306 304 307 308 309 313 311 307 296 293 302 289 293 311 280 223 296 311 306 298 202 191 191 201 210 214 222 228 231 239 247 253 261 270 280 289 297 304 311 315 318 320 321 321 320 320 319 320 321 321 320 319 318 317 316 314 313 312 311 310 309 308 307 306 304 303 303 303 303 302 303 304 305 305 306 306
316 311 310 308 308 309 308 309 310 311 309 306 308 311 315 316 311 299 286 295 318 260 286 319 223 199 305 338 197 206 201 192 197 199 199 203 207 212 224 235 245 257 270 281 290 297 305 312 318 321 322 324 323 322 320 320 320 321 321 319 318 317 316 315 314 314 312 311 310 310 310 309 309 308 306 305 305 305 305 303 303 304 304 303 303 303
319 315 313 313 311 311 311 313 317 316 311 308 313 319 321 319 311 292 281 299 310 266 289 256 174 208 256 278 242 242 217 201 202 196 194 199 206 218 234 246 261 277 288 297 304 309 315 320 323 324 324 324 322 320 319 319 319 319 319 317 316 316 315 314 314 313 311 310 310 310 310 311 312 311 311 310 309 309 307 306 305 305 304 303 303 302
326 327 325 321 321 320 320 327 330 322 316 317 317 321 325 329 329 302 282 260 233 240 149 163 277 280 257 245 243 221 186 183 190 193 196 207 224 243 261 278 291 300 305 311 316 320 323 326 326 326 325 323 321 319 318 319 319 319 319 318 316 316 316 315 314 312 311 311 311 311 311 312 312 312 312 311 310 310 309 308 308 307 306 306 305 306
333 338 336 327 326 323 321 326 326 317 315 315 314 319 325 358 3 301 278 300 275 233 261 308 306 294 249 215 197 178 168 176 190 206 221 242 266 286 299 305 307 311 315 320 325 327 328 329 328 326 323 321 320 319 319 319 320 319 319 318 318 318 318 317 315 313 311 311 311 311 311 311 312 311 311 310 310 310 310 309 309 308 309 308 308 309
326 325 328 325 322 317 314 317 317 316 318 314 313 318 291 250 240 248 252 269 273 280 295 300 296 286 217 169 180 181 179 205 226 246 278 299 306 311 311 311 315 319 323 327 328 329 329 328 326 323 321 320 320 321 320 321 320 319 319 320 321 320 319 317 315 313 312 311 311 311 311 311 311 310 310 309 309 309 309 309 309 309 310 310 310 310
314 302 312 313 313 313 312 314 319 323 325 317 312 307 280 266 250 246 269 276 280 300 299 277 264 284 189 157 163 186 228 250 273 291 311 316 314 314 314 317 322 325 327 328 328 329 328 325 323 320 319 320 321 321 320 320 319 318 320 321 321 320 319 317 315 313 312 311 311 310 310 310 310 309 309 309 309 309 309 309 309 310 310 310 310 309
307 298 309 311 313 316 314 316 322 322 319 304 299 293 280 280 268 261 278 283 286 308 278 248 194 155 150 147 149 209 252 275 298 301 309 314 314 316 318 322 325 326 327 327 327 326 322 320 318 318 318 319 319 319 319 318 316 316 320 322 322 321 319 317 314 313 312 311 310 310 309 309 309 309 309 309 309 309 309 309 309 309 309 309 308 307
307 305 313 316 317 321 320 319 319 318 312 301 293 292 291 287 270 260 277 307 332 316 250 245 204 182 179 163 156 189 266 292 305 306 311 313 314 317 320 322 324 324 325 324 322 319 317 317 318 318 318 318 318 318 317 317 315 316 318 322 324 323 319 316 314 312 310 309 309 308 308 308 308 308 309 309 309 309 308 308 308 308 307 307 306 305
314 309 314 320 319 320 320 318 317 317 315 306 295 295 295 285 270 256 257 312 335 281 269 265 248 257 199 154 162 236 303 307 312 313 313 314 316 318 320 321 322 323 323 321 319 318 318 319 319 319 319 318 318 318 318 317 316 315 316 319 323 322 319 316 313 311 309 309 309 309 309 309 309 309 310 309 309 309 308 308 307 306 305 304 303 302
320 306 303 312 313 315 318 317 316 315 312 306 297 293 292 282 275 260 242 247 246 244 276 293 317 42 60 95 228 305 325 328 325 324 322 322 323 322 321 322 322 322 321 319 319 318 319 319 319 319 319 318 318 317 318 317 315 315 315 317 320 321 319 315 313 311 310 309 310 310 311 310 310 310 310 310 310 309 308 306 305 304 303 303 302 302
321 295 285 303 309 312 316 318 314 309 306 301 296 297 296 288 281 272 266 264 256 238 210 271 330 97 86 349 307 324 336 334 328 326 325 324 322 320 320 321 320 319 318 318 318 318 319 319 319 318 318 317 317 317 317 316 314 314 316 318 320 321 319 316 314 313 312 312 312 312 312 311 311 311 311 311 309 308 307 305 304 303 303 303 303 302
318 293 285 299 308 312 316 317 309 302 298 295 296 302 304 299 291 280 276 262 243 241 247 263 261 159 159 322 322 326 330 325 322 322 321 319 318 318 319 318 317 317 318 319 319 319 319 318 318 318 318 318 318 317 316 314 314 315 318 319 321 321 319 317 315 314 313 314 314 313 313 313 313 313 311 310 309 307 306 304 303 303 303 302 302 301
313 300 291 297 307 314 317 316 306 300 301 293 284 300 312 310 292 266 268 273 250 262 272 273 252 185 206 283 314 319 320 317 315 315 315 315 317 318 317 316 317 318 319 320 319 319 319 319 320 319 319 318 317 315 314 314 316 318 320 321 321 321 319 317 316 315 314 314 314 314 314 314 313 312 310 309 308 307 305 304 303 302 302 301 300 299
314 306 296 299 308 314 319 322 306 291 338 313 297 307 313 311 296 274 274 282 279 275 270 273 264 190 207 271 306 310 311 309 308 309 311 313 315 316 316 317 319 320 320 320 319 320 321 322 321 319 318 317 316 315 316 317 319 321 322 322 321 320 318 317 316 315 315 315 314 315 314 314 312 310 310 309 308 306 305 303 302 302 301 301 300 299
312 305 299 305 315 321 330 345 300 290 309 308 306 311 311 304 296 287 281 282 281 263 240 240 236 208 219 269 287 290 295 299 303 307 310 312 314 315 317 319 321 321 321 322 322 323 324 322 320 318 317 316 315 316 318 320 321 322 323 322 321 319 318 318 317 317 317 316 316 315 314 313 312 311 310 310 308 307 305 304 303 303 302 301 301 300
310 304 301 300 298 301 305 300 295 298 302 302 304 306 304 301 298 294 291 285 262 244 252 260 270 268 269 278 284 290 296 302 307 310 312 314 316 318 320 321 322 322 323 324 324 324 323 320 317 316 316 316 317 318 321 323 324 324 324 323 323 322 321 320 320 319 319 318 317 315 314 313 313 313 312 311 309 308 307 307 306 306 305 303 302 302
311 309 307 297 283 283 289 295 301 302 298 299 305 304 299 299 300 303 304 289 267 276 281 274 273 283 292 299 302 305 308 310 311 313 314 317 319 320 321 322 323 324 324 323 323 322 319 316 315 315 318 320 322 324 325 326 326 326 326 326 325 324 323 322 322 321 320 318 317 316 316 315 315 314 313 312 311 310 309 309 308 308 306 305 303 302
312 310 311 304 298 299 301 305 310 303 296 302 309 300 293 292 297 302 303 288 277 283 288 285 285 294 304 309 310 311 312 311 311 314 317 320 320 321 321 322 323 323 323 322 320 318 316 315 317 320 324 326 327 327 327 327 327 327 327 326 325 324 324 323 322 321 320 319 318 318 317 315 314 313 313 313 312 311 310 310 309 308 306 304 303 302
314 313 315 311 312 317 316 314 314 308 308 312 304 294 290 287 290 293 287 282 280 277 284 292 298 306 311 312 311 309 309 310 312 315 317 319 319 320 321 322 322 322 321 319 317 315 316 319 323 327 328 328 327 326 326 327 327 327 327 326 325 324 323 323 322 320 319 319 318 317 316 315 314 314 314 313 312 311 310 310 309 308 306 304 303 301
317 315 319 314 315 324 328 323 321 321 323 311 290 284 282 280 285 285 273 276 281 284 290 295 304 313 314 311 309 308 308 310 312 314 316 318 319 320 322 322 322 320 318 316 315 317 320 324 327 328 328 327 327 327 327 327 327 326 326 325 324 323 323 322 321 320 319 318 317 316 315 315 315 314 313 312 311 310 310 309 308 307 306 305 303 302
320 317 322 317 315 325 334 327 317 315 314 300 275 269 274 276 282 285 283 289 293 297 301 304 310 315 313 311 311 311 310 311 312 315 318 320 321 322 324 323 320 318 317 317 319 322 325 327 328 328 328 328 327 327 327 327 326 326 325 324 323 323 322 321 320 320 319 317 316 316 315 315 314 313 313 312 311 310 310 309 308 307 306 305 304 302
324 322 328 323 315 323 334 329 316 308 304 290 257 252 267 273 281 291 295 300 304 307 311 313 316 316 314 314 313 309 309 313 316 320 322 323 324 325 324 321 319 319 320 322 325 327 328 328 329 329 329 328 327 327 326 326 325 325 324 323 322 321 321 320 319 318 318 317 316 316 315 314 313 313 313 312 311 311 310 310 309 308 307 307 305 304
330 330 334 327 313 320 332 329 320 313 302 278 242 258 280 287 291 295 296 299 305 311 316 317 317 314 311 310 310 309 314 318 321 324 325 324 324 323 322 321 322 324 326 327 329 329 329 329 330 329 328 327 327 326 325 325 325 324 323 322 321 320 320 319 319 318 317 317 317 316 316 315 314 313 313 313 312 312 312 312 311 310 310 309 308 306
335 335 335 325 304 313 329 332 329 321 271 251 280 288 292 296 297 298 302 306 309 313 317 315 311 307 305 306 309 312 317 320 322 324 326 324 323 323 323 325 327 329 329 330 331 330 329 329 329 328 327 326 325 325 325 325 324 324 323 322 321 320 320 319 319 318 318 318 318 317 317 316 315 315 314 314 314 314 314 313 313 312 311 310 309 308
336 336 334 325 306 307 328 343 350 353 253 287 294 292 294 295 295 298 306 311 312 313 314 312 307 304 303 305 309 314 317 320 322 324 325 325 325 325 327 330 332 331 331 331 331 330 329 329 328 327 326 325 324 325 325 325 324 324 323 322 322 321 321 320 320 319 319 319 318 318 317 317 317 317 317 317 317 316 316 315 314 313 313 312 311 309
339 338 333 331 322 314 334 351 352 298 296 294 283 280 285 288 294 305 312 314 316 315 312 309 305 302 303 308 312 316 318 319 321 325 327 328 327 328 331 334 333 332 331 331 329 328 328 328 328 327 326 325 325 326 326 325 325 324 323 323 322 322 322 321 321 321 321 320 320 320 320 319 319 319 319 319 319 318 317 317 316 315 315 313 312 311
338 336 331 336 345 343 343 341 324 297 291 284 277 280 288 296 309 322 320 317 316 313 306 302 301 303 309 315 317 319 320 320 323 329 331 330 330 332 334 335 332 331 330 329 327 327 328 328 328 327 327 327 326 326 326 325 325 324 324 324 323 323 323 322 322 322 322 322 322 323 323 323 322 322 322 322 321 320 319 318 318 317 316 315 313 311
335 338 334 338 348 353 351 342 329 302 267 276 288 293 299 305 315 322 318 313 311 307 299 299 306 312 317 320 321 321 323 324 328 333 333 331 332 335 335 334 331 330 329 328 327 328 328 328 328 327 327 327 326 326 325 325 325 325 325 324 324 323 323 323 323 324 324 324 325 325 325 325 325 325 324 324 323 322 321 320 320 319 318 317 315 312
336 335 335 346 356 356 353 342 317 277 271 286 296 299 301 306 313 317 314 307 302 301 304 309 315 319 322 322 321 323 326 328 331 335 335 332 334 335 334 332 331 330 330 329 329 328 328 328 328 327 326 326 325 325 325 325 325 325 325 325 324 324 324 324 324 325 325 326 326 327 327 327 327 327 326 326 325 324 323 322 322 322 321 318 316 313
337 332 329 343 351 349 346 335 311 292 287 294 301 304 307 312 316 317 311 298 301 306 312 318 321 321 321 320 320 324 327 327 329 333 333 331 332 332 331 330 331 330 330 329 328 327 327 327 327 326 326 326 325 325 325 325 325 325 325 325 325 325 325 325 326 326 326 327 327 328 329 329 329 328 328 327 326 326 326 326 325 324 322 319 316 313
336 341 332 324 336 344 346 336 319 302 296 304 309 309 312 317 318 312 297 300 307 312 317 319 318 316 317 318 320 323 326 325 325 328 329 329 330 330 330 330 330 329 328 328 327 327 326 327 327 327 327 326 326 326 325 325 326 326 326 325 325 325 325 326 327 327 327 327 328 329 329 330 329 329 329 329 328 328 328 327 326 325 323 320 316 313
333 345 340 335 343 349 344 330 319 306 310 320 318 313 314 319 318 309 305 307 311 315 316 315 314 314 317 319 320 323 326 326 325 326 327 328 328 329 330 330 329 328 327 327 327 327 327 328 328 328 328 327 327 327 326 326 326 326 326 325 325 325 326 326 327 328 328 329 329 330 330 330 330 330 330 331 330 329 329 328 328 326 324 320 316 313
330 341 354 353 351 349 342 332 321 312 318 321 319 315 316 318 316 312 312 313 314 315 314 313 314 317 319 320 321 324 327 328 327 327 328 328 328 329 329 329 328 328 328 328 328 328 329 329 329 329 328 328 328 327 327 326 327 327 326 326 326 326 326 327 328 329 330 330 331 331 331 331 332 332 332 332 331 330 330 329 329 327 324 320 316 314
323 331 351 358 355 346 336 328 320 317 318 318 316 313 312 313 312 312 313 314 314 314 314 314 316 319 321 321 322 326 329 328 327 328 328 327 328 329 329 329 329 329 329 329 330 330 330 330 330 330 330 329 328 328 327 327 327 327 327 327 326 326 326 328 330 331 331 332 332 332 332 333 333 334 334 333 332 331 331 331 329 328 325 321 318 316
318 321 336 348 350 342 335 329 325 323 320 316 311 307 306 307 309 311 313 314 314 314 315 317 319 321 322 322 324 327 328 327 327 328 329 328 329 330 330 330 330 330 330 330 330 330 330 330 330 330 330 329 328 328 328 327 327 328 328 327 327 327 328 329 331 332 333 333 333 333 334 334 335 336 336 335 334 334 333 331 330 329 327 324 321 320
309 317 333 341 341 340 339 334 329 328 326 320 312 308 308 309 311 314 315 315 315 316 318 321 322 322 322 323 325 327 327 327 328 330 331 330 330 330 331 330 330 330 330 331 331 331 330 330 330 330 330 330 329 329 329 329 329 329 329 329 328 329 330 330 332 333 333 334 334 335 335 336 336 337 337 337 337 336 334 331 330 330 329 327 326 327
303 312 326 334 337 340 340 335 332 332 331 325 319 315 314 315 316 318 319 319 320 321 322 324 324 323 323 325 326 326 327 328 330 331 332 331 330 331 331 330 330 331 331 332 332 331 331 331 330 330 331 331 330 330 329 330 331 331 331 331 331 331 332 332 333 334 334 335 335 336 337 337 338 338 338 339 340 338 335 332 331 332 332 331 335 338
302 313 326 333 336 339 337 335 334 333 330 327 324 320 318 319 321 322 322 322 323 323 324 325 325 324 325 327 326 326 327 329 330 331 332 331 331 331 331 330 331 331 332 333 333 332 332 331 331 332 332 332 331 331 331 332 332 332 332 333 333 333 332 333 334 334 335 336 337 337 338 339 338 338 340 341 343 342 339 335 334 337 340 341 346 353
301 314 327 331 333 336 336 335 335 334 331 330 327 322 320 321 322 322 322 323 323 324 324 324 325 325 326 327 326 326 328 330 331 331 332 332 331 331 331 331 331 332 333 333 333 333 333 332 333 333 333 332 332 333 333 333 334 334 334 335 334 333 333 333 334 334 336 338 338 338 339 339 339 340 341 342 344 346 346 341 337 340 348 354 358 2
299 314 327 332 334 337 337 335 335 334 331 328 326 323 322 323 323 322 322 323 324 325 325 325 326 327 326 326 326 327 329 331 331 332 332 332 331 330 331 332 332 332 333 334 334 335 334 333 333 333 333 333 334 334 335 335 335 336 336 336 335 334 334 334 334 336 338 339 340 340 340 340 341 342 342 342 343 347 351 352 345 343 349 1 7 6
305 320 331 335 337 337 336 335 333 330 327 326 326 324 323 323 323 323 324 325 326 326 327 327 328 327 326 327 328 329 329 330 331 331 331 331 331 332 332 332 332 333 334 335 335 335 334 333 334 334 334 335 336 336 336 336 336 337 338 336 335 335 335 335 336 337 339 340 341 341 340 341 342 342 342 343 345 346 349 355 356 350 350 358 4 3
Height
3134 3133 3132 3131 3130 3129 3128 3128 3127 3125 3125 3123 3122 3120 3119 3117 3116 3117 3116 3114 3113 3109 3107 3107 3105 3103 3103 3103 3103 3100 3097 3095 3094 3093 3093 3092 3093 3092 3092 3091 3092 3092 3091 3092 3092 3091 3091 3090 3090 3089 3089 3088 3087 3086 3085 3084 3083 3081 3080 3078 3075 3073 3070 3067 3065 3062 3060 3057 3054 3052 3049 3046 3044 3041 3038 3035 3033 3030 3028 3026 3024 3022 3020 3017 3015 3013
3132 3130 3129 3129 3128 3127 3126 3126 3125 3124 3123 3122 3120 3118 3117 3116 3114 3113 3113 3111 3111 3107 3105 3105 3102 3100 3101 3099 3098 3095 3092 3092 3091 3091 3091 3091 3091 3090 3090 3090 3090 3090 3090 3090 3090 3089 3089 3088 3088 3087 3086 3086 3085 3083 3082 3081 3079 3077 3076 3073 3071 3068 3066 3063 3060 3057 3054 3051 3048 3045 3042 3039 3037 3035 3031 3028 3026 3023 3021 3019 3017 3015 3013 3010 3008 3006
3129 3128 3127 3127 3126 3125 3125 3124 3123 3122 3121 3119 3118 3116 3114 3114 3112 3110 3110 3109 3109 3106 3103 3102 3098 3096 3098 3096 3094 3092 3090 3090 3089 3090 3090 3089 3089 3088 3089 3089 3089 3089 3089 3089 3088 3088 3087 3086 3085 3085 3084 3083 3082 3080 3078 3077 3076 3074 3072 3069 3066 3064 3062 3059 3055 3052 3048 3045 3042 3038 3035 3032 3030 3027 3024 3021 3018 3015 3013 3011 3009 3007 3005 3003 3001 2999
3127 3126 3126 3125 3124 3123 3122 3122 3121 3119 3118 3117 3116 3114 3112 3112 3111 3108 3107 3106 3106 3105 3101 3099 3095 3093 3094 3093 3091 3091 3090 3089 3088 3089 3089 3088 3087 3088 3088 3089 3088 3088 3087 3087 3086 3086 3085 3084 3083 3082 3081 3079 3078 3076 3074 3073 3071 3069 3067 3064 3061 3059 3056 3053 3049 3046 3042 3039 3036 3033 3029 3026 3022 3020 3017 3014 3011 3008 3005 3002 3000 2998 2997 2995 2994 2992
3125 3124 3123 3122 3122 3121 3120 3120 3119 3117 3116 3115 3114 3112 3110 3110 3109 3107 3106 3104 3104 3103 3101 3097 3092 3089 3091 3091 3089 3090 3089 3088 3087 3087 3087 3086 3087 3087 3087 3088 3087 3086 3085 3085 3084 3083 3082 3081 3080 3079 3078 3076 3075 3073 3070 3068 3067 3064 3061 3059 3056 3053 3050 3046 3043 3040 3037 3034 3031 3027 3024 3020 3017 3014 3011 3007 3005 3003 3000 2996 2994 2991 2989 2988 2986 2985
3123 3122 3121 3120 3120 3119 3118 3117 3117 3115 3113 3112 3111 3110 3109 3108 3107 3106 3104 3103 3101 3100 3099 3098 3094 3088 3088 3090 3088 3087 3087 3087 3086 3086 3086 3086 3086 3086 3086 3086 3085 3084 3083 3083 3082 3081 3080 3079 3078 3076 3075 3073 3071 3069 3067 3065 3062 3060 3056 3053 3050 3047 3044 3041 3038 3035 3032 3028 3025 3021 3018 3014 3011 3008 3005 3002 2999 2997 2995 2992 2989 2986 2984 2982 2980 2979
3121 3120 3119 3118 3117 3117 3115 3115 3114 3113 3110 3109 3109 3108 3107 3106 3105 3104 3103 3102 3099 3097 3097 3098 3097 3090 3086 3088 3088 3086 3086 3086 3086 3086 3086 3086 3086 3085 3085 3084 3083 3082 3081 3081 3080 3078 3077 3077 3075 3074 3072 3070 3068 3066 3063 3060 3058 3055 3052 3048 3045 3042 3038 3035 3032 3030 3026 3023 3019 3015 3012 3008 3005 3002 2999 2997 2994 2991 2989 2986 2984 2982 2979 2977 2975 2973
3119 3118 3117 3116 3115 3114 3113 3112 3112 3111 3109 3107 3107 3107 3106 3105 3104 3102 3101 3100 3098 3096 3095 3095 3095 3091 3086 3086 3087 3086 3086 3086 3085 3086 3086 3085 3085 3084 3083 3082 3081 3080 3080 3079 3078 3076 3075 3074 3073 3071 3069 3067 3064 3061 3059 3056 3053 3050 3047 3044 3041 3037 3033 3030 3027 3023 3020 3017 3013 3010 3006 3003 3000 2996 2994 2991 2988 2986 2983 2980 2978 2976 2974 2971 2969 2966
3117 3116 3115 3114 3113 3112 3111 3110 3110 3109 3107 3106 3105 3105 3104 3103 3102 3100 3098 3097 3096 3094 3092 3091 3092 3091 3087 3085 3086 3085 3085 3085 3085 3085 3084 3084 3083 3083 3081 3080 3079 3078 3078 3077 3076 3075 3073 3072 3071 3069 3067 3064 3061 3058 3055 3052 3049 3045 3042 3039 3035 3032 3028 3025 3021 3017 3013 3010 3007 3004 3001 2997 2995 2992 2989 2986 2984 2981 2978 2975 2973 2971 2968 2965 2962 2960
3116 3114 3114 3113 3111 3110 3110 3109 3107 3106 3106 3105 3104 3103 3103 3101 3099 3098 3096 3095 3095 3094 3091 3089 3090 3090 3088 3086 3085 3085 3085 3085 3084 3083 3083 3082 3082 3081 3079 3078 3077 3077 3076 3075 3074 3073 3072 3071 3069 3067 3064 3060 3057 3054 3051 3047 3044 3040 3037 3033 3029 3026 3022 3019 3015 3011 3007 3003 3000 2997 2995 2992 2989 2987 2984 2982 2979 2977 2973 2970 2968 2965 2962 2960 2957 2954
3114 3113 3112 3111 3110 3109 3108 3107 3106 3105 3104 3103 3102 3102 3101 3099 3097 3095 3094 3093 3094 3092 3089 3088 3089 3090 3089 3086 3085 3085 3085 3085 3083 3082 3081 3081 3080 3079 3078 3076 3076 3075 3075 3074 3073 3071 3070 3068 3066 3063 3059 3056 3053 3049 3046 3043 3039 3036 3032 3029 3025 3022 3018 3014 3010 3006 3002 2999 2995 2992 2989 2986 2984 2981 2978 2975 2973 2970 2967 2964 2962 2959 2957 2955 2952 2950
3113 3112 3110 3109 3109 3108 3107 3106 3105 3104 3103 3102 3102 3100 3098 3096 3095 3093 3093 3093 3093 3090 3088 3088 3089 3089 3089 3087 3085 3085 3084 3084 3083 3082 3081 3080 3079 3077 3076 3075 3075 3074 3073 3072 3071 3069 3067 3064 3061 3058 3055 3052 3049 3046 3042 3039 3036 3032 3029 3025 3020 3016 3013 3009 3005 3002 2998 2994 2990 2987 2983 2980 2977 2974 2971 2968 2965 2963 2961 2958 2956 2953 2951 2950 2947 2945
3111 3110 3109 3108 3108 3107 3106 3105 3104 3103 3102 3101 3101 3099 3097 3095 3094 3093 3092 3092 3091 3089 3088 3088 3089 3088 3087 3086 3085 3084 3084 3083 3083 3082 3080 3079 3078 3076 3075 3074 3073 3072 3071 3069 3068 3065 3063 3060 3057 3054 3051 3048 3045 3042 3038 3035 3031 3028 3023 3019 3014 3010 3007 3003 2999 2996 2992 2989 2985 2981 2978 2974 2971 2968 2965 2962 2960 2957 2954 2951 2949 2947 2945 2943 2941 2939
3109 3109 3108 3108 3107 3106 3105 3104 3104 3103 3101 3100 3099 3098 3097 3097 3096 3095 3092 3091 3089 3088 3088 3088 3088 3087 3086 3085 3085 3084 3083 3082 3082 3081 3079 3078 3077 3076 3074 3072 3071 3069 3068 3066 3063 3061 3058 3055 3052 3049 3046 3043 3041 3037 3034 3030 3025 3021 3017 3013 3008 3004 3001 2997 2993 2990 2986 2983 2980 2976 2973 2970 2966 2963 2960 2957 2954 2952 2949 2946 2943 2941 2938 2936 2933 2931
3109 3108 3107 3107 3107 3106 3105 3104 3103 3101 3100 3098 3097 3097 3097 3097 3098 3096 3092 3090 3088 3087 3087 3087 3086 3085 3084 3084 3084 3083 3082 3081 3081 3080 3078 3077 3076 3074 3072 3070 3069 3066 3064 3062 3059 3056 3053 3051 3048 3045 3042 3039 3036 3031 3027 3023 3019 3015 3011 3007 3003 2999 2995 2991 2988 2984 2981 2977 2974 2971 2968 2964 2961 2958 2955 2952 2949 2946 2943 2940 2936 2934 2931 2928 2926 2923
3109 3108 3107 3106 3106 3105 3103 3102 3101 3100 3098 3097 3096 3096 3095 3095 3095 3093 3091 3089 3088 3087 3086 3085 3084 3083 3083 3083 3083 3082 3081 3080 3079 3078 3077 3076 3074 3072 3070 3068 3066 3063 3061 3058 3055 3052 3050 3047 3044 3041 3038 3034 3029 3025 3021 3017 3013 3009 3005 3002 2998 2994 2990 2986 2982 2978 2975 2971 2968 2965 2962 2959 2956 2952 2949 2946 2943 2940 2937 2933 2930 2927 2925 2922 2919 2916
3109 3107 3106 3105 3104 3103 3102 3101 3100 3099 3097 3096 3095 3094 3094 3093 3093 3091 3089 3088 3087 3087 3085 3082 3083 3082 3082 3083 3082 3080 3080 3079 3078 3076 3075 3073 3071 3069 3067 3065 3063 3060 3057 3054 3052 3049 3047 3044 3041 3037 3033 3029 3024 3020 3016 3012 3009 3005 3001 2996 2992 2989 2985 2981 2977 2973 2969 2966 2963 2960 2957 2954 2950 2947 2943 2940 2937 2934 2931 2927 2924 2921 2919 2916 2913 2910
3109 3105 3103 3103 3101 3101 3100 3099 3098 3097 3096 3095 3094 3093 3093 3092 3091 3091 3089 3087 3088 3088 3084 3080 3081 3081 3081 3081 3080 3079 3078 3077 3075 3074 3072 3071 3069 3067 3065 3062 3060 3057 3054 3052 3050 3047 3044 3040 3036 3032 3028 3023 3019 3014 3010 3007 3004 3000 2996 2991 2987 2983 2979 2975 2971 2968 2964 2960 2957 2954 2951 2948 2945 2941 2938 2934 2931 2928 2924 2921 2918 2915 2912 2909 2906 2903
3109 3103 3100 3100 3100 3099 3098 3097 3096 3095 3094 3093 3092 3092 3092 3090 3090 3090 3089 3087 3087 3087 3084 3080 3079 3079 3079 3079 3079 3077 3076 3074 3073 3072 3070 3068 3066 3064 3062 3059 3057 3054 3052 3049 3046 3042 3038 3034 3030 3025 3021 3017 3013 3009 3005 3002 2999 2995 2990 2986 2982 2978 2974 2970 2966 2962 2959 2955 2951 2948 2945 2942 2938 2935 2932 2928 2925 2921 2918 2914 2911 2908 2905 2902 2899 2896
3110 3105 3099 3097 3098 3097 3096 3095 3094 3093 3092 3092 3091 3090 3090 3089 3089 3088 3088 3087 3086 3086 3084 3080 3078 3079 3079 3078 3077 3075 3073 3072 3070 3068 3067 3065 3063 3060 3058 3056 3053 3051 3048 3045 3041 3037 3032 3028 3024 3019 3015 3011 3007 3004 3001 2997 2993 2989 2985 2981 2977 2972 2968 2964 2960 2956 2952 2949 2945 2942 2939 2935 2932 2928 2925 2922 2918 2914 2911 2908 2905 2901 2898 2895 2892 2889
3108 3106 3100 3096 3096 3096 3095 3094 3092 3091 3090 3090 3090 3089 3089 3088 3088 3087 3085 3085 3084 3084 3083 3081 3079 3079 3078 3076 3075 3073 3071 3069 3067 3065 3063 3061 3059 3057 3055 3053 3050 3047 3044 3040 3036 3031 3026 3022 3018 3014 3010 3006 3003 3000 2996 2992 2987 2983 2979 2974 2970 2965 2961 2957 2954 2950 2946 2942 2939 2935 2932 2929 2925 2922 2918 2915 2912 2908 2905 2901 2898 2894 2891 2888 2884 2881
3105 3104 3099 3095 3094 3094 3093 3092 3091 3089 3089 3089 3088 3088 3088 3087 3087 3086 3083 3082 3082 3082 3081 3080 3079 3078 3076 3074 3073 3071 3069 3067 3064 3062 3061 3059 3057 3055 3053 3050 3047 3044 3040 3035 3030 3025 3021 3017 3013 3009 3005 3001 2998 2994 2990 2986 2981 2977 2972 2968 2963 2959 2954 2950 2947 2943 2939 2936 2933 2929 2926 2922 2919 2915 2912 2908 2905 2901 2898 2894 2890 2887 2883 2880 2876 2873
3104 3102 3098 3094 3093 3092 3091 3090 3089 3088 3088 3087 3087 3087 3087 3086 3085 3084 3082 3080 3080 3080 3079 3079 3078 3076 3074 3072 3070 3068 3067 3064 3062 3060 3058 3056 3054 3051 3049 3046 3043 3039 3034 3029 3025 3020 3016 3012 3008 3004 3000 2997 2993 2988 2984 2979 2975 2970 2965 2961 2957 2953 2949 2945 2941 2937 2934 2930 2927 2923 2919 2916 2913 2909 2906 2902 2898 2895 2891 2887 2883 2879 2875 2872 2869 2865
3102 3100 3096 3093 3092 3091 3089 3088 3087 3087 3087 3087 3086 3085 3085 3084 3083 3082 3081 3079 3079 3078 3078 3078 3076 3073 3072 3070 3068 3066 3064 3062 3060 3058 3056 3053 3051 3048 3045 3041 3037 3033 3028 3024 3019 3015 3011 3007 3003 2999 2995 2991 2987 2982 2978 2973 2969 2964 2959 2955 2951 2948 2944 2939 2935 2932 2928 2925 2921 2918 2913 2910 2906 2903 2899 2895 2891 2887 2884 2880 2876 2872 2868 2864 2861 2858
3101 3099 3096 3093 3090 3089 3088 3087 3086 3086 3086 3085 3084 3083 3082 3081 3080 3080 3078 3078 3077 3076 3076 3076 3073 3071 3070 3069 3067 3065 3063 3061 3059 3056 3053 3050 3046 3043 3039 3035 3031 3027 3022 3017 3013 3009 3006 3002 2998 2994 2990 2986 2982 2977 2972 2968 2963 2959 2955 2950 2946 2942 2938 2934 2930 2926 2922 2918 2915 2911 2907 2903 2899 2896 2892 2888 2884 2880 2876 2872 2869 2865 2861 2857 2853 2849
3100 3098 3096 3094 3092 3090 3088 3088 3086 3085 3084 3083 3082 3081 3079 3078 3078 3077 3076 3076 3075 3074 3074 3073 3070 3068 3068 3067 3065 3063 3061 3058 3055 3052 3049 3046 3042 3038 3033 3030 3026 3021 3016 3012 3008 3005 3001 2997 2993 2990 2986 2982 2977 2971 2966 2962 2958 2953 2950 2945 2940 2936 2932 2928 2924 2920 2916 2912 2908 2905 2900 2896 2892 2888 2884 2880 2876 2872 2868 2865 2861 2857 2853 2849 2844 2841
3097 3095 3094 3093 3092 3089 3087 3086 3085 3084 3082 3080 3080 3079 3077 3076 3075 3075 3074 3074 3073 3072 3071 3070 3068 3065 3064 3063 3061 3059 3056 3053 3050 3047 3044 3041 3037 3033 3029 3025 3020 3016 3012 3008 3004 3001 2997 2993 2989 2985 2981 2976 2971 2965 2960 2956 2952 2947 2943 2939 2934 2929 2925 2922 2918 2914 2910 2906 2902 2898 2893 2889 2885 2880 2876 2873 2869 2865 2861 2857 2853 2849 2845 2841 2836 2832
3095 3093 3092 3091 3089 3087 3085 3084 3083 3082 3080 3078 3077 3076 3075 3074 3073 3073 3072 3072 3071 3070 3068 3067 3067 3064 3062 3060 3057 3054 3051 3048 3045 3042 3039 3036 3032 3028 3024 3020 3016 3011 3007 3004 3000 2996 2991 2987 2983 2979 2974 2969 2964 2959 2955 2950 2946 2942 2937 2933 2929 2924 2920 2916 2912 2908 2903 2899 2895 2891 2886 2882 2878 2874 2870 2865 2861 2857 2853 2849 2846 2842 2838 2834 2829 2825
3093 3090 3089 3088 3087 3086 3084 3082 3081 3080 3078 3076 3075 3073 3073 3072 3072 3071 3071 3070 3069 3068 3066 3065 3064 3063 3060 3057 3054 3051 3048 3045 3042 3039 3036 3033 3029 3024 3020 3016 3011 3007 3003 2999 2995 2991 2986 2981 2976 2972 2968 2963 2958 2954 2950 2945 2941 2937 2933 2928 2923 2919 2915 2910 2906 2902 2898 2893 2889 2885 2880 2876 2871 2867 2863 2859 2854 2850 2846 2842 2838 2834 2830 2826 2822 2818
3091 3089 3087 3086 3084 3084 3082 3081 3079 3078 3076 3075 3073 3071 3071 3071 3070 3069 3069 3068 3067 3066 3065 3063 3062 3060 3058 3055 3052 3049 3046 3043 3040 3037 3034 3031 3025 3020 3016 3011 3006 3002 2999 2995 2990 2986 2981 2977 2972 2968 2963 2958 2954 2949 2945 2940 2936 2932 2927 2923 2918 2914 2909 2905 2901 2896 2892 2887 2883 2878 2874 2869 2864 2860 2856 2852 2847 2843 2839 2834 2830 2826 2822 2818 2814 2810
3089 3087 3086 3084 3082 3081 3080 3079 3077 3076 3074 3073 3071 3070 3070 3069 3068 3068 3067 3067 3065 3064 3063 3061 3059 3057 3055 3052 3049 3046 3042 3040 3037 3034 3030 3026 3020 3015 3011 3006 3002 2998 2994 2990 2986 2981 2977 2972 2968 2964 2959 2953 2948 2944 2939 2935 2930 2926 2922 2917 2913 2908 2904 2900 2895 2890 2886 2881 2877 2872 2868 2863 2858 2854 2849 2845 2840 2836 2832 2827 2823 2819 2815 2810 2806 2802
3088 3086 3085 3083 3080 3079 3078 3077 3075 3074 3072 3070 3069 3069 3069 3068 3068 3067 3066 3065 3063 3061 3060 3057 3055 3053 3050 3047 3044 3042 3039 3036 3033 3029 3025 3020 3016 3011 3006 3002 2998 2994 2990 2985 2980 2976 2972 2967 2963 2958 2953 2949 2944 2939 2935 2930 2926 2922 2918 2913 2908 2904 2899 2895 2890 2885 2881 2876 2871 2866 2862 2857 2852 2848 2843 2838 2833 2829 2824 2819 2815 2811 2806 2802 2798 2793
3087 3085 3084 3082 3079 3077 3076 3075 3073 3071 3070 3069 3068 3068 3068 3067 3066 3066 3065 3064 3062 3059 3057 3054 3052 3049 3045 3042 3040 3037 3034 3031 3028 3024 3020 3016 3011 3007 3003 2998 2994 2989 2985 2980 2975 2971 2967 2962 2958 2954 2949 2944 2940 2935 2931 2926 2922 2918 2913 2909 2904 2900 2895 2891 2885 2880 2876 2870 2865 2860 2855 2851 2846 2841 2836 2831 2826 2822 2817 2812 2807 2802 2798 2793 2789 2785
3086 3084 3082 3080 3077 3075 3074 3073 3071 3069 3068 3068 3068 3067 3067 3066 3065 3064 3063 3062 3060 3057 3055 3052 3049 3046 3043 3040 3037 3034 3031 3028 3024 3022 3018 3013 3007 3002 2997 2993 2988 2984 2980 2975 2971 2967 2962 2959 2955 2950 2945 2941 2936 2932 2927 2923 2918 2913 2908 2904 2899 2894 2890 2885 2880 2875 2870 2865 2859 2854 2849 2844 2839 2834 2829 2824 2819 2814 2809 2804 2799 2794 2789 2785 2781 2777
3085 3083 3081 3079 3076 3074 3073 3072 3070 3069 3069 3068 3068 3067 3066 3065 3064 3063 3061 3060 3058 3055 3052 3049 3046 3043 3040 3037 3035 3032 3029 3025 3022 3019 3015 3009 3003 2997 2992 2988 2983 2979 2975 2971 2967 2962 2958 2955 2951 2946 2942 2937 2932 2927 2923 2918 2913 2908 2903 2898 2893 2888 2883 2878 2873 2868 2863 2858 2853 2848 2842 2837 2832 2827 2822 2817 2812 2807 2802 2797 2792 2787 2782 2777 2773 2769
3083 3081 3080 3078 3076 3074 3073 3072 3072 3070 3069 3068 3067 3066 3065 3064 3063 3061 3058 3056 3054 3051 3047 3045 3042 3039 3037 3035 3032 3029 3025 3021 3018 3015 3010 3004 2999 2993 2988 2984 2980 2975 2971 2966 2962 2958 2954 2950 2946 2941 2936 2931 2926 2921 2917 2912 2908 2903 2898 2893 2887 2883 2878 2872 2867 2861 2856 2851 2846 2841 2835 2830 2825 2820 2815 2810 2805 2799 2794 2789 2784 2779 2774 2769 2765 2761
3082 3080 3079 3077 3076 3075 3074 3073 3072 3070 3068 3066 3066 3065 3064 3063 3062 3060 3056 3052 3050 3047 3043 3041 3039 3037 3034 3031 3027 3023 3019 3015 3012 3009 3004 2999 2994 2989 2985 2982 2977 2973 2968 2964 2959 2955 2950 2946 2941 2935 2930 2925 2920 2915 2911 2906 2902 2897 2893 2887 2882 2877 2872 2866 2860 2855 2849 2844 2838 2833 2828 2822 2817 2813 2808 2803 2798 2792 2787 2781 2776 2771 2766 2762 2758 2754
3082 3080 3078 3077 3076 3075 3074 3072 3071 3069 3067 3065 3065 3064 3063 3062 3061 3060 3055 3050 3047 3045 3041 3039 3037 3033 3030 3026 3021 3017 3012 3006 3003 3001 2998 2993 2988 2985 2982 2978 2974 2970 2965 2960 2955 2950 2946 2942 2937 2931 2926 2920 2916 2911 2906 2901 2896 2891 2886 2881 2876 2871 2866 2860 2855 2849 2843 2838 2832 2827 2821 2816 2811 2805 2801 2796 2790 2785 2780 2775 2769 2764 2759 2755 2751 2748
3081 3079 3078 3077 3076 3075 3074 3073 3072 3069 3066 3064 3064 3063 3062 3061 3060 3057 3052 3047 3044 3043 3040 3037 3034 3029 3025 3021 3016 3012 3007 3000 2995 2994 2992 2987 2983 2980 2977 2974 2970 2966 2962 2956 2951 2946 2942 2938 2934 2929 2924 2918 2912 2907 2902 2896 2891 2886 2881 2876 2870 2865 2860 2855 2849 2843 2837 2832 2826 2821 2815 2810 2805 2799 2794 2789 2784 2779 2773 2768 2763 2758 2753 2749 2745 2741
3080 3079 3077 3076 3076 3075 3074 3073 3071 3069 3065 3064 3062 3061 3060 3059 3057 3054 3050 3044 3040 3039 3037 3033 3029 3025 3021 3017 3012 3009 3005 2999 2992 2989 2987 2984 2981 2978 2974 2970 2966 2962 2958 2953 2949 2944 2939 2934 2930 2926 2921 2915 2909 2903 2897 2892 2887 2881 2876 2870 2864 2859 2854 2849 2844 2838 2832 2827 2821 2816 2810 2805 2799 2794 2789 2783 2778 2773 2768 2762 2757 2753 2748 2744 2740 2736
3079 3078 3077 3076 3075 3074 3073 3071 3070 3067 3065 3063 3062 3059 3057 3055 3054 3052 3048 3042 3037 3035 3032 3029 3026 3022 3018 3014 3009 3006 3003 3000 2994 2989 2986 2982 2979 2975 2971 2967 2963 2959 2955 2951 2946 2941 2937 2932 2926 2921 2915 2910 2905 2899 2894 2888 2882 2877 2871 2865 2859 2854 2849 2843 2838 2833 2828 2822 2817 2812 2806 2801 2795 2790 2784 2778 2773 2768 2763 2758 2752 2748 2743 2739 2735 2731
3079 3078 3077 3076 3074 3073 3072 3070 3068 3065 3063 3062 3060 3056 3053 3052 3050 3048 3044 3039 3035 3032 3029 3026 3023 3019 3015 3011 3006 3003 3000 2996 2992 2988 2984 2980 2976 2972 2968 2964 2960 2956 2952 2948 2943 2938 2933 2928 2922 2917 2911 2905 2899 2894 2888 2883 2878 2872 2867 2861 2855 2849 2844 2839 2834 2828 2823 2818 2813 2807 2802 2797 2791 2786 2780 2774 2769 2763 2758 2753 2748 2743 2739 2734 2730 2727
3078 3077 3076 3075 3074 3072 3071 3069 3066 3064 3062 3059 3056 3052 3049 3048 3046 3043 3039 3036 3033 3029 3026 3023 3019 3015 3011 3006 3002 2999 2996 2992 2988 2985 2981 2977 2973 2969 2965 2961 2957 2952 2948 2943 2938 2933 2928 2923 2918 2912 2907 2901 2895 2889 2883 2878 2873 2867 2861 2856 2850 2844 2839 2834 2829 2824 2818 2813 2808 2803 2798 2793 2787 2782 2776 2770 2765 2759 2754 2749 2744 2739 2735 2730 2726 2724
3078 3077 3076 3076 3074 3072 3071 3069 3067 3064 3061 3057 3054 3050 3047 3045 3043 3040 3037 3033 3030 3026 3023 3019 3015 3011 3007 3002 2998 2994 2991 2988 2984 2981 2977 2973 2970 2966 2962 2958 2953 2948 2943 2938 2933 2928 2923 2918 2913 2908 2902 2896 2890 2885 2878 2873 2868 2863 2857 2850 2845 2839 2834 2829 2824 2819 2814 2809 2804 2799 2794 2789 2783 2778 2772 2767 2761 2755 2750 2744 2740 2736 2731 2727 2723 2721
3077 3077 3076 3075 3074 3073 3070 3068 3065 3063 3060 3057 3054 3050 3047 3045 3042 3039 3035 3031 3027 3023 3019 3015 3011 3007 3003 2998 2994 2991 2988 2985 2981 2978 2974 2970 2966 2961 2957 2953 2949 2944 2939 2934 2929 2924 2919 2914 2909 2904 2899 2893 2886 2880 2874 2868 2862 2857 2852 2846 2840 2834 2829 2824 2819 2814 2809 2804 2799 2794 2789 2784 2780 2775 2769 2764 2758 2752 2746 2740 2736 2732 2728 2724 2721 2719
3077 3076 3075 3074 3073 3071 3069 3066 3064 3062 3060 3057 3053 3049 3045 3042 3039 3036 3032 3027 3023 3019 3015 3011 3007 3003 2999 2995 2990 2988 2985 2981 2977 2974 2970 2965 2961 2957 2953 2949 2945 2940 2935 2931 2926 2920 2915 2910 2905 2899 2894 2889 2882 2876 2870 2863 2857 2852 2846 2841 2835 2830 2824 2819 2815 2810 2805 2800 2795 2790 2785 2780 2775 2771 2766 2761 2756 2750 2743 2737 2733 2729 2725 2722 2719 2717
3076 3075 3074 3073 3071 3069 3066 3064 3061 3059 3057 3054 3049 3044 3041 3038 3034 3031 3027 3023 3018 3013 3010 3007 3003 2999 2995 2991 2987 2984 2981 2977 2973 2969 2966 2961 2957 2953 2949 2945 2940 2936 2931 2926 2921 2916 2911 2905 2900 2895 2889 2884 2878 2871 2865 2859 2853 2847 2841 2836 2830 2825 2820 2815 2811 2806 2801 2796 2791 2786 2781 2776 2771 2767 2763 2758 2753 2748 2742 2736 2732 2728 2724 2720 2718 2716
3075 3074 3072 3070 3068 3066 3064 3061 3058 3055 3053 3050 3045 3040 3035 3032 3029 3025 3021 3018 3014 3009 3005 3002 2999 2995 2991 2987 2984 2980 2977 2974 2970 2966 2962 2958 2953 2949 2945 2941 2936 2931 2927 2922 2917 2911 2906 2900 2895 2889 2883 2878 2872 2867 2861 2855 2849 2844 2838 2832 2826 2821 2816 2812 2807 2802 2798 2793 2787 2782 2778 2773 2768 2763 2759 2755 2751 2746 2739 2733 2729 2727 2723 2719 2717 2716
3074 3073 3071 3068 3066 3063 3060 3057 3054 3050 3047 3044 3040 3036 3031 3028 3025 3021 3017 3014 3010 3007 3003 3000 2996 2992 2988 2985 2981 2978 2974 2971 2967 2963 2959 2954 2950 2946 2942 2937 2932 2927 2923 2918 2913 2907 2901 2895 2890 2884 2879 2873 2867 2862 2856 2851 2845 2840 2834 2828 2823 2818 2812 2808 2804 2799 2795 2790 2785 2779 2775 2770 2766 2761 2756 2752 2749 2746 2740 2731 2726 2725 2723 2720 2717 2716
3073 3072 3069 3066 3063 3060 3057 3054 3050 3046 3042 3039 3036 3032 3027 3024 3021 3017 3013 3010 3006 3003 3000 2996 2993 2989 2986 2982 2979 2974 2971 2967 2963 2959 2956 2952 2947 2943 2938 2934 2929 2924 2919 2914 2908 2903 2896 2890 2885 2879 2874 2869 2863 2857 2852 2846 2841 2836 2831 2825 2820 2815 2809 2804 2800 2796 2791 2787 2782 2777 2772 2767 2763 2759 2754 2750 2746 2744 2742 2736 2728 2724 2723 2721 2718 2717
3073 3070 3068 3064 3061 3058 3055 3052 3049 3045 3041 3038 3034 3029 3024 3021 3018 3014 3010 3006 3002 2999 2996 2992 2988 2985 2982 2979 2975 2971 2967 2964 2960 2957 2953 2949 2945 2940 2935 2930 2925 2920 2915 2910 2904 2899 2893 2887 2881 2876 2870 2865 2859 2853 2848 2843 2838 2833 2828 2823 2818 2812 2807 2802 2797 2792 2788 2783 2779 2774 2769 2765 2760 2756 2752 2748 2744 2740 2738 2736 2732 2727 2723 2721 2719 2718